Home > Weather > Santa Clarita > Past weeks

Flag for USA Past Weather in Santa Clarita, California, USA — Yesterday and Last 2 Weeks

Now
91 °F

Sunny.


Feels Like: 88 °F
Forecast: 63 / 93 °F
Wind: 8 mph from South

Location: Van Nuys Airport

Current Time: Aug 24, 2016 at 2:42:48 PM

Latest Report: Aug 24, 2016 at 1:51 PM


Visibility: 10 mi

Pressure: 29.94 "Hg

Humidity: 26%

Dew Point: 51 °F

Location of Santa ClaritaLocation

Past Weather in Santa Clarita — Graph

°F

Santa Clarita Temperature Yesterday

Maximum temperature yesterday: 90 °F (at 2:51 PM)
Minimum temperature yesterday: 65 °F (at 5:51 AM)
Average temperature yesterday: 77 °F

High & Low Weather Summary for the Past Weeks

 TemperatureHumidityPressure
High104 °F (Aug 14, 1:51 PM)94% (Aug 10, 1:51 AM)30.02 "Hg (Aug 10, 1:51 AM)
Low62 °F (Aug 18, 5:51 AM)3% (Aug 17, 2:51 PM)29.75 "Hg (Aug 16, 5:51 PM)
Average78 °F49%29.88 "Hg
* Reported Aug 9 12:51 PM — Aug 24 12:51 PM, Santa Clarita, Weather by CustomWeather, © 2016

Note: Actual official high and low records may vary slightly from our data, if they occured in-between our weather recording intervals... More about our weather records

Advertising

Santa Clarita Weather History for the Previous 24 Hours

Scroll right to see more
 ConditionsComfort  
Time TempWeatherWind HumidityBarometerVisibility
12:51 PM
Wed, Aug 24
88 °FSunny.No wind27%29.96 "Hg10 mi
11:51 AM86 °FSunny.7 mph32%29.98 "Hg10 mi
10:51 AM82 °FSunny.3 mph34%30.01 "Hg10 mi
9:51 AM77 °FSunny.3 mph47%30.02 "Hg10 mi
8:51 AM73 °FSunny.No wind59%30.02 "Hg10 mi
7:51 AM69 °FSunny.No wind70%30.02 "Hg10 mi
6:51 AM66 °FClear.No wind78%30.01 "Hg10 mi
5:51 AM67 °FClear.No wind76%30.00 "Hg10 mi
4:51 AM67 °FClear.No wind76%29.99 "Hg10 mi
3:51 AM68 °FClear.3 mph73%29.99 "Hg10 mi
2:51 AM69 °FClear.No wind70%29.99 "Hg10 mi
1:51 AM70 °FClear.No wind68%29.99 "Hg10 mi
12:51 AM71 °FClear.5 mph61%30.00 "Hg10 mi
11:51 PM
Tue, Aug 23
72 °FClear.No wind64%30.00 "Hg10 mi
10:51 PM74 °FClear.6 mph53%30.00 "Hg10 mi
9:51 PM76 °FClear.5 mph43%30.00 "Hg10 mi
8:51 PM78 °FClear.No wind37%29.98 "Hg10 mi
7:51 PM79 °FSunny.5 mph32%29.96 "Hg10 mi
6:51 PM82 °FSunny.6 mph29%29.95 "Hg10 mi
5:51 PM85 °FSunny.10 mph27%29.94 "Hg10 mi
4:51 PM88 °FSunny.13 mph21%29.94 "Hg10 mi
3:51 PM89 °FSunny.12 mph22%29.95 "Hg10 mi
2:51 PM90 °FSunny.12 mph19%29.96 "Hg10 mi
Weather by CustomWeather, © 2016

See weather overviewHow to use our weather pages